Regional Weather Roundup
Issued by NWS

Home | Current Version | Previous Version | Text Only | Print | Product List | Glossary On
Versions: 1 2 3 4 5 6 7 8 9 10 11 12 13 14 15 16 17 18 19 20 21 22 23 24 25 26 27 28 29 30 31 32 33 34 35 36 37 38 39 40 41 42 43 44 45 46 47 48 49 50
903
ASUS46 KSEW 091910
RWRWA

WASHINGTON REGIONAL WEATHER ROUNDUP
NATIONAL WEATHER SERVICE SEATTLE WA
1100 AM PST TUE FEB 09 2016

NOTE:"FAIR" INDICATES FEW OR NO CLOUDS BELOW 12,000 FEET WITH NO
SIGNIFICANT WEATHER AND/OR OBSTRUCTIONS TO VISIBILITY.

WAZ505-507>509-092000-
SEATTLE, TACOMA, EVERETT, AND VICINITY

CITY           SKY/WX    TMP DP  RH WIND       PRES   REMARKS
EVERETT        SUNNY     55  40  56 S8        30.18F
BOEING FIELD   FOG       44  43  96 E3        30.20F VSB 1
RENTON         FOG       45  44  97 E3        30.19F VSB 1/4
SEATAC AIRPORT PTSUNNY   47  44  90 S3        30.19F
JBLM-MCCHORD   CLOUDY    44  44 100 CALM      30.19F
PUYALLUP       FAIR      55  48  76 CALM      30.18F
BREMERTON      MOSUNNY   55  46  71 SW3       30.23F
JBLM-FT LEWIS  MOSUNNY   46  46 100 CALM      30.19F
TACOMA NARROWS FOG       44  44 100 CALM      30.20S VSB 1/4
$$

WAZ001-503-506-510-514-515-092000-
NORTH INTERIOR

CITY           SKY/WX    TMP DP  RH WIND       PRES   REMARKS
BELLINGHAM     SUNNY     52  41  66 NE7       30.20S
FRIDAY HARBOR  SUNNY     52  42  69 NE6       30.20S
EASTSOUND      SUNNY     48  43  81 N3        30.18F
PORT ANGELES   MOSUNNY   50  44  80 E5        30.18F
EDIZ HOOK      FAIR      48  43  82 CALM      30.19F
PORT TOWNSEND  FAIR      50  46  87 VRB5      30.19F
NAS WHIDBEY    PTSUNNY   48  44  86 SE10      30.23F
ARLINGTON      SUNNY     50  39  66 CALM      30.21F
BURLINGTON     SUNNY     50  41  71 N6        30.20F
$$

WAZ020-022-039-040-504-511-512-092000-
SOUTHWEST INTERIOR

CITY           SKY/WX    TMP DP  RH WIND       PRES   REMARKS
SHELTON        MOSUNNY   47  45  93 CALM      30.17F
OLYMPIA        MOSUNNY   50  43  77 CALM      30.19F
CHEHALIS       FAIR      46  46 100 CALM      30.19F
KELSO          SUNNY     48  41  76 CALM      30.23F
VANCOUVER      SUNNY     54  38  54 VRB3      30.22F
SCAPPOOSE, OR  SUNNY     58  39  49 S7        30.21F
PORTLAND, OR   MOSUNNY   56  37  49 E13       30.22F
$$

WAZ021-516-517-092000-
WASHINGTON COAST

CITY           SKY/WX    TMP DP  RH WIND       PRES   REMARKS
FORKS          MOSUNNY   59  45  59 E6        30.10F
HOQUIAM        MOSUNNY   54  47  77 E13       30.13F
ASTORIA, OR    MOSUNNY   62  43  49 E7        30.13F
$$

WAZ019-023-024-040-518-519-092000-
CASCADE MOUNTAINS AND COLUMBIA GORGE

CITY           SKY/WX    TMP DP  RH WIND       PRES   REMARKS
STAMPEDE PASS  NOT AVBL
TROUTDALE, OR  SUNNY     52  36  54 E26G39    30.22F
THE DALLES, OR SUNNY     43  34  70 CALM      30.44F
$$

WAZ026-027-041>044-520-521-092000-
EAST SLOPES

CITY           SKY/WX    TMP DP  RH WIND       PRES   REMARKS
OMAK           SUNNY     28  26  92 CALM      30.46F FOG
WENATCHEE      SUNNY     35  28  75 NW6       30.44F
ELLENSBURG     PTSUNNY   28  24  85 SW5       30.41F FOG
YAKIMA         MOSUNNY   46  32  58 VRB3      30.42F
$$

WAZ028-034-035-092000-
COLUMBIA BASIN

CITY           SKY/WX    TMP DP  RH WIND       PRES   REMARKS
EPHRATA        SUNNY     46  33  60 N8        30.41F
MOSES LAKE     SUNNY     45  34  65 N9        30.42F
PASCO          SUNNY     42  32  67 CALM      30.45F
HERMISTON, OR  SUNNY     43  34  70 CALM      30.43F
$$

WAZ036>038-092000-
NORTHEAST WASHINGTON

CITY           SKY/WX    TMP DP  RH WIND       PRES   REMARKS
SPOKANE GEIGER MOSUNNY   40  32  73 NE8       30.39F
SPOKANE FELTS  SUNNY     42  33  70 CALM      30.41F
FAIRCHILD AFB  SUNNY     40  34  79 NE9       30.38F
COEURDALENE,ID SUNNY     39  34  81 NE14      30.39F
DEER PARK      SUNNY     42  33  70 N7        30.41F
$$

WAZ029>033-092000-
SOUTHEAST WASHINGTON

CITY           SKY/WX    TMP DP  RH WIND       PRES   REMARKS
PULLMAN        SUNNY     50  37  61 E16       30.38F
LEWISTON, ID   SUNNY     50  36  58 E12       30.39F
WALLA WALLA    SUNNY     39  32  76 S8        30.41F
PENDLETON, OR  SUNNY     39  33  79 S5        30.40F
$$




USA.gov is the U.S. government's official web portal to all federal, state and local government web resources and services.